Location: Trois-Rivi�res
(46.3500°N, 72.5500°W)
Time: 23:33:49
(UTC-04:00)

Daily predictions for brighter satellites

Satellite Brightness Start Highest point End
(mag) Time Altitude Azimuth Time Altitude Azimuth Time Altitude Azimuth
SL-16 R/B 4.4 21:06:16 10° WSW 21:11:19 33° NW 21:16:24 10° NNE
YAOGAN 6 3.8 21:10:02 10° SE 21:13:19 30° ENE 21:16:38 10° N
GRACE-1 4.0 21:10:29 10° N 21:13:21 82° W 21:16:13 10° S
GRACE-2 4.0 21:10:55 10° N 21:13:49 82° W 21:16:39 10° S
Envisat 3.1 21:18:39 10° SSE 21:23:44 90° WSW 21:28:51 10° NNW
GEOS 3 Rocket 4.4 21:19:33 10° SSE 21:24:37 47° WSW 21:29:40 10° NW
Cosmos 1758 Rocket 4.3 21:21:03 10° SSE 21:24:59 33° E 21:28:54 10° NNE
Cosmos 407 Rocket 3.8 21:21:42 10° S 21:26:42 46° ESE 21:31:41 10° NNE
Cosmos 2263 4.2 21:25:45 10° NNW 21:31:25 86° ENE 21:37:04 10° SSE
Cosmos 1515 3.9 21:31:26 10° SSW 21:35:17 77° W 21:39:10 10° N
CZ-2C R/B 3.5 21:34:31 10° WSW 21:35:35 12° W 21:36:40 10° WNW
UNK 4.3 21:31:52 10° NNE 21:37:19 62° ESE 21:43:02 10° S
MetOp-A 4.2 21:32:11 10° SSE 21:37:33 83° ENE 21:42:56 10° NNW
SL-27 R/B 3.8 21:36:56 13° SE 21:38:57 20° E 21:41:31 10° NE
Cosmos 1825 Rocket 3.5 21:36:00 10° S 21:40:26 82° E 21:44:53 10° N
Cosmos 1066 Rocket 4.3 21:37:44 10° S 21:43:28 80° E 21:49:20 10° NNE
COSMOS 2406 4.2 21:39:35 10° SSE 21:44:14 26° ESE 21:48:54 10° NE
Cosmos 1943 Rocket 2.3 21:40:00 10° NNW 21:45:32 64° ENE 21:50:21 14° SE
Cosmos 1954 Rocket 4.5 21:43:13 10° S 21:48:11 42° ESE 21:53:10 10° NE
Lacrosse 4 Rocket 1.3 21:45:36 10° SSW 21:49:39 87° ESE 21:53:48 10° NNE
Cosmos 2084 3.4 21:49:32 10° NW 21:53:40 81° NE 21:56:59 17° SE
Atlas Centaur 2 4.1 21:50:36 10° SW 21:55:54 22° S 22:00:12 14° SSE
Meteor 1-22 Rocket 4.4 21:50:39 10° NNW 21:56:18 80° W 22:02:09 10° S
SeaSat 1 2.6 21:52:49 13° SSE 21:57:17 71° WSW 22:02:14 10° NNW
H-2A R/B 4.2 21:56:21 10° SSW 21:59:50 23° W 22:03:23 10° NW
Cosmos 1943 3.6 21:54:13 10° SW 21:59:52 69° WNW 22:05:35 10° NNE
ISS -2.1 21:56:47 10° W 21:59:57 45° NNW 22:03:07 10° ENE
CZ-4C R/B 3.6 22:00:19 17° SE 22:03:17 55° ENE 22:07:09 10° N
Landsat 7 4.1 22:02:45 17° SE 22:06:15 54° ENE 22:10:54 10° N
SL-23 DEB 4.3 22:02:29 10° SW 22:08:31 53° SSE 22:12:14 10° ENE
CZ-4B R/B 3.6 22:07:03 10° NNE 22:12:11 83° WNW 22:17:25 10° SSW
CZ-4 R/B 3.9 22:08:06 10° NNE 22:13:08 74° ESE 22:18:09 10° S
Cosmos 1953 2.4 22:10:46 10° N 22:14:44 61° E 22:17:07 22° SSE
Lacrosse 5 rocket 4.1 22:14:02 10° NW 22:16:56 19° N 22:19:56 10° NE
Nadezhda 4 Rocket 4.4 22:13:51 17° SSE 22:18:30 47° E 22:24:31 10° NNE
PSLV R/B 4.5 22:17:25 10° WSW 22:20:27 27° SSW 22:21:15 24° S
Cosmos 2221 4.4 22:19:07 10° NNE 22:22:01 17° ENE 22:24:01 13° E
Terra 2.1 22:19:02 21° SE 22:22:04 54° ENE 22:26:43 10° N
ARGOS 3.3 22:18:00 15° S 22:22:32 72° WSW 22:27:59 10° NNW
Spot 4 4.4 22:19:48 20° SE 22:22:45 45° ENE 22:27:19 10° N
ATLAS 3B R/B 3.2 22:17:13 10° SW 22:24:55 73° NW 22:32:24 10° NE
Cosmos-2242 3.0 22:20:38 10° N 22:25:04 86° W 22:28:02 21° S
Cosmos 1346 Rocket 4.1 22:21:33 10° SW 22:25:15 40° WNW 22:29:01 10° N
Cosmos 1850 Rocket 4.3 22:24:43 18° S 22:28:20 48° ESE 22:33:20 10° NNE
Cosmos 1842 3.2 22:25:38 16° S 22:28:43 84° W 22:32:40 10° N
Cosmos 1570 Rocket 4.0 22:25:29 10° NNW 22:30:54 88° ENE 22:34:19 23° SSE
Cosmos 1140 Rocket 3.5 22:26:32 13° S 22:31:09 65° ESE 22:36:21 10° NNE
H-2A R/B 2.0 22:33:42 23° SSE 22:36:50 80° ENE 22:41:59 10° NNW
Lacrosse 5 3.6 22:33:33 10° NW 22:38:01 30° NNE 22:42:28 10° ENE
NOSS 3-2 (A) 4.3 22:35:29 22° SSE 22:38:05 30° ESE 22:43:41 10° NE
SL-8 R/B 3.8 22:33:44 10° WNW 22:38:31 61° SSW 22:41:05 26° SE
Cosmos 2369 Rocket 4.1 22:35:16 10° NW 22:39:25 21° W 22:43:31 10° SSW
Cosmos 1607 4.0 22:34:05 10° SSW 22:40:12 58° ESE 22:46:18 10° NE
USA 234 3.3 22:37:10 22° SE 22:41:39 67° SW 22:48:12 10° NW
Cosmos 614 Rocket 4.0 22:48:02 23° S 22:51:12 62° ESE 22:56:22 10° NNE
Spot 2 4.4 22:52:38 10° NNE 22:57:32 79° ESE 23:00:35 24° S
SAR-Lupe-2 4.1 22:58:16 31° SSW 22:59:39 50° W 23:03:11 10° NNW
Cosmos 1544 3.0 22:56:54 10° N 23:00:42 88° W 23:01:55 41° S
Cosmos 1340 2.9 23:00:50 41° SE 23:01:43 53° E 23:05:26 10° NNE
Cosmos 1758 4.4 22:59:30 10° NNW 23:03:22 39° W 23:05:36 21° SSW
Meteor 2-5 Rocket 4.0 23:00:28 28° SSE 23:03:25 56° E 23:09:01 10° NNE
CARTOSAT-1 4.0 23:02:00 27° SSW 23:04:07 54° W 23:08:23 10° NNW
CZ-4C R/B 2.6 23:03:36 30° SSE 23:05:28 40° ESE 23:11:00 10° NE
Okean 3 Rocket 3.6 23:08:05 38° SSE 23:09:37 63° E 23:14:00 10° NNE
USA 238 DEB 3.9 23:05:19 10° SW 23:12:25 78° NW 23:19:31 10° NE
USA 238 3.9 23:05:24 10° SW 23:12:30 79° NW 23:19:36 10° NE
DMSP B5D2-2 4.2 23:09:23 10° NNE 23:14:41 78° WNW 23:18:08 22° SSW
Cosmos 2278 4.1 23:11:01 10° NNW 23:16:36 55° ENE 23:19:31 27° SE
Cosmos 1470 2.8 23:14:21 10° NNW 23:18:15 73° W 23:19:20 45° S
IGS 5A 4.4 23:19:53 27° SSW 23:21:34 40° W 23:25:31 10° NNW
Cosmos 1408 Rocket 4.3 23:21:14 34° ESE 23:22:11 39° E 23:26:21 10° NNE
COSMOS 2487 2.8 23:24:51 36° SW 23:26:07 64° WNW 23:29:43 10° NNE
Cosmos 1697 Rocket 4.3 23:22:24 10° N 23:27:15 28° NE 23:31:20 13° ESE
Cosmos 405 Rocket 3.9 23:27:34 27° E 23:27:36 27° E 23:30:50 10° NNE
COSMOS 2406 3.9 23:22:37 10° SW 23:28:11 54° WNW 23:33:50 10° NNE
Cosmos 1943 Rocket 4.0 23:24:43 10° NW 23:28:46 21° W 23:31:53 13° SW
Lacrosse 4 Rocket 4.4 23:26:40 10° WNW 23:29:00 15° NW 23:31:22 10° N
CENTAUR R/B 4.3 23:29:35 14° ESE 23:29:58 14° ESE 23:33:07 10° ENE
Cosmos 1818 3.5 23:26:40 10° NW 23:32:12 88° NE 23:34:29 36° SE
ALOS 2 3.7 23:32:11 27° ESE 23:33:38 34° ENE 23:37:36 10° N
Cosmos 1689 Rocket 4.1 23:34:48 21° ENE 23:35:05 22° ENE 23:37:39 10° NNE
Cosmos 2082 Rocket 3.4 23:34:49 24° ESE 23:35:40 25° ESE 23:40:11 10° NE
NOSS 3-3 (A) 4.4 23:28:50 10° NW 23:36:13 78° SW 23:40:25 31° SSE
NOSS 3-3 (C) 4.4 23:28:56 10° NW 23:36:19 79° SW 23:40:32 31° SSE
Cosmos 1833 Rocket 4.2 23:35:46 19° ESE 23:36:25 20° E 23:40:21 10° NE
ISS -1.4 23:33:54 10° WNW 23:36:52 31° N 23:39:50 10° ENE
CZ-4B R/B 2.9 23:37:33 27° E 23:38:15 29° ENE 23:41:30 10° N
Cosmos 1417 Rocket 4.4 23:34:16 10° N 23:40:27 81° E 23:43:09 36° SSE
H-2A R/B 3.4 23:38:16 10° NE 23:41:37 29° E 23:41:37 29° E
Cosmos 1553 Rocket 4.1 23:38:42 10° N 23:45:03 68° E 23:47:54 35° SSE
NOSS 3-2 (C) 3.5 23:43:08 28° SSW 23:46:32 69° SE 23:53:14 10° NE
Cosmos 1707 3.3 23:50:19 38° SW 23:51:24 52° WNW 23:55:16 10° N
Cosmos 1743 Rocket 4.3 23:51:30 36° ESE 23:52:09 38° E 23:56:17 10° NNE
